Flight Track Log - Related Links

Times and Time Zones

All times are in EST time to prevent confusion due to time zone crossing. See the N400PU flight status page for this flight to view local times or setup timezone preferences in your user account.

Time Position Orientation Groundspeed Altitude Reporting Facility
EST Latitude Longitude Course Direction KTS MPH feet Rate Location/Type
Mon 08:48:08 AM 40.4139 -86.9664 295° West 179 206 1,700  Level Chicago Center
Mon 08:48:14 AM 40.4158 -86.9719 295° West 187 215 1,900 1,182 Climbing Chicago Center
Mon 08:49:14 AM 40.3633 -86.9739 182° South 230 265 3,000 581 Climbing Chicago Center
Mon 08:50:18 AM 40.3125 -86.9311 147° Southeast 250 288 3,100 48 Climbing Chicago Center
Mon 08:51:20 AM 40.2458 -86.8603 141° Southeast 255 293 3,100  Level Chicago Center
Mon 08:52:21 AM 40.1900 -86.7978 139° Southeast 260 299 3,100  Level Chicago Center
Mon 08:53:23 AM 40.1336 -86.7372 141° Southeast 262 302 3,100  Level Chicago Center
Mon 08:54:21 AM 40.0761 -86.6769 141° Southeast 263 303 3,100  Level Indianapolis Center
Mon 08:55:22 AM 40.0214 -86.6189 141° Southeast 259 298 3,100  Level Indianapolis Center
Mon 08:56:24 AM 39.9653 -86.5578 140° Southeast 261 300 3,100  Level Indianapolis Center
Mon 08:57:25 AM 39.9092 -86.4986 141° Southeast 261 300 3,100  Level Indianapolis Center
Mon 08:58:26 AM 39.8825 -86.4067 111° Southeast 285 328 3,100  Level Indianapolis Center
Mon 08:59:27 AM 39.8731 -86.3086 97° East 284 327 3,100  Level Indianapolis Center
Mon 09:00:28 AM 39.9117 -86.2286 58° Northeast 268 308 3,100 -49 Level Indianapolis Center
Mon 09:01:30 AM 39.9128 -86.1583 89° East 246 283 3,000  Descending Indianapolis Center
Mon 09:02:31 AM 39.8608 -86.1392 164° South 213 245 3,100  Climbing Indianapolis Center
Mon 09:03:32 AM 39.8153 -86.1808 215° Southwest 183 211 3,000 -293 Descending Indianapolis Center
Mon 09:04:34 AM 39.7864 -86.2186 225° Southwest 164 189 2,500 -585 Descending Indianapolis Center
Mon 09:05:35 AM 39.7619 -86.2497 224° Southwest 143 165 1,800 -689 Descending Indianapolis Center
Mon 09:06:36 AM 39.7381 -86.2803 225° Southwest 127 146 1,100 -488 Descending Indianapolis Center
Mon 09:07:38 AM 39.7208 -86.3022 224° Southwest 96 110 800 -146 Descending Indianapolis Center
Mon 09:08:39 AM 39.7203 -86.3006 113° Southeast 36 41 800  Level Indianapolis Center
Mon 09:09:40 AM 39.7217 -86.2975 59° Northeast 22 25 800  Level Indianapolis Center

Login

Don't have an account? Register now (free) for customized features, flight alerts, and more!